Regional Weather Roundup
Issued by NWS Albany, NY

Home | Current Version | Previous Version | Text Only | Print | Product List | Glossary On
Versions: 1 2 3 4 5 6 7 8 9 10 11 12 13 14 15 16 17 18 19 20 21 22 23 24 25 26 27 28 29 30 31 32 33 34 35 36 37 38 39 40 41 42 43 44 45 46 47 48 49 50
000
ASUS41 KALY 301110
RWRALY

NEW YORK STATE HOURLY WEATHER ROUNDUP
NATIONAL WEATHER SERVICE ALBANY NY
700 AM EDT WED JUL 30 2014

NOTE: "FAIR" INDICATES FEW OR NO CLOUDS BELOW 12,000 FEET WITH NO
SIGNIFICANT WEATHER AND/OR NO OBSTRUCTIONS TO VISIBILITY.

NYZ032-033-038>043-046>054-057>066-NYZ062>081-301200-
EAST


CITY           SKY/WX    TMP DP  RH WIND       PRES   REMARKS
ALBANY         PTSUNNY   61  55  81 CALM      30.02R
GLENS FALLS    CLOUDY    59  54  83 CALM      30.01R
POUGHKEEPSIE   PTSUNNY   60  57  89 CALM      30.01R
NEWBURGH       MOSUNNY   57  55  94 W6        30.03R
MONTGOMERY     SUNNY     56  54  93 CALM      30.02R
WHITE PLAINS   SUNNY     60  55  83 NW6       30.01R
ISLIP          MOSUNNY   63  57  81 CALM      29.99R
NEW YORK CITY  PTSUNNY   65  52  62 NE3       30.01R
CENTRAL PARK   SUNNY     63  53  70 CALM      30.04R
$$

NYZ005>009-017-018-044>046-055-056-301200-
CENTRAL


CITY           SKY/WX    TMP DP  RH WIND       PRES   REMARKS
FULTON         PTSUNNY   54  51  90 VRB3      29.99R
SYRACUSE       MOSUNNY   55  51  86 SE6       30.00R
ROME           SUNNY     51  49  92 E5        30.03R
ELMIRA         FOG       52  52 100 CALM      30.03R VSB<1/4
BINGHAMTON     SUNNY     51  50  96 CALM      30.04R
MONTICELLO     SUNNY     50  48  93 CALM      30.05R
$$

NYZ026>034-041>043-301200-
NORTH


CITY           SKY/WX    TMP DP  RH WIND       PRES   REMARKS
WATERTOWN      SUNNY     59  50  72 S6        29.98R
FORT DRUM      NOT AVBL
MASSENA        CLOUDY    55  52  89 S3        29.99R
SARANAC LAKE   MOSUNNY   38  38 100 CALM      30.01S
PLATTSBURGH    CLOUDY    54  52  93 CALM      30.01R
$$

NYZ001>004-010>016-019>021-301200-
WEST


CITY           SKY/WX    TMP DP  RH WIND       PRES   REMARKS
NIAGARA FALLS  PTCLDY    59  57  93 E3        29.96R
BUFFALO        PTCLDY    57  53  86 S6        29.97R
DUNKIRK        CLOUDY    59  55  87 S8        29.97R
JAMESTOWN      CLOUDY    54  50  87 S8        30.01R
WELLSVILLE     CLOUDY    55  49  80 SW5       30.04R
ROCHESTER      MOCLDY    58  52  80 SW6       29.98R
PENN YAN       PTCLDY    56  54  93 SW8       30.01R
$$

             KEY
       WCI = WIND CHILL INDEX
       VSB = VISIBILITY
       HX  = HEAT INDEX
$$



USA.gov is the U.S. government's official web portal to all federal, state and local government web resources and services.